Naples, Italy

4:05 AM CEST on April 28, 2017 (GMT +0200)
Capodichino Mil

Weather History for LIRN - March, 2013

Change the Weather History Date:

Thursday, March 7, 2013

  Actual Average Record
Temperature  
Mean Temperature 58 °F -  
Max Temperature 60 °F 60 °F 71 °F (2002)
Min Temperature 57 °F 44 °F 35 °F (2005)
Degree Days  
Heating Degree Days 6    
Growing Degree Days 8 (Base 50)    
Moisture  
Dew Point 55 °F    
Average Humidity 91    
Maximum Humidity 100    
Minimum Humidity 82    
Precipitation  
Precipitation 0.00 in 0.11 in - ()
Sea Level Pressure  
Sea Level Pressure 29.76 in    
Wind  
Wind Speed 6 mph ()    
Max Wind Speed 9 mph    
Max Gust Speed -    
Visibility 3.4 miles    
Events Rain    
Averages and records for this station are not official NWS values.
T = Trace of Precipitation, MM = Missing Value Source: Averaged Metar Reports

Daily Weather History Graph

Daily Weather History Graph

Search for Another Location

Airport or City:

Trip Planner

Search our weather history database for the weather conditions in past years. The results will help you decide how hot, cold, wet, or windy it might be!

Date:

Astronomy

Mar. 07, 2013 Rise Set
Actual Time 6:27 AM CET 6:00 PM CET
Civil Twilight 6:00 AM CET 6:28 PM CET
Nautical Twilight 5:28 AM CET 6:59 PM CET
Astronomical Twilight 4:56 AM CET 7:31 PM CET
Moon 3:14 AM CET (3/7) 1:27 PM CET (3/7)
Length of Visible Light 12h 28m
Length of Day
11h 33m
Waning Crescent, 22% of the Moon is Illuminated
Mar 7
Waning Crescent
Mar 11
New
Mar 19
First Quarter
Mar 27
Full
Apr 3
Last Quarter

Hourly Weather History & Observations

Time (CET) Temp. Dew Point Humidity Pressure Visibility Wind Dir Wind Speed Gust Speed Precip Events Conditions
12:20 AM 59.0 °F 53.6 °F 82% 29.77 in 6.2 mi SSE 5.8 mph - N/A   Drizzle
12:50 AM 57.2 °F 53.6 °F 88% 29.77 in 6.2 mi South 5.8 mph - N/A Rain Light Rain
1:20 AM 59.0 °F 53.6 °F 82% 29.77 in 6.2 mi South 5.8 mph - N/A   Light Drizzle
1:50 AM 59.0 °F 53.6 °F 82% 29.74 in 6.2 mi South 8.1 mph - N/A   Light Drizzle
2:20 AM 57.2 °F 53.6 °F 88% 29.74 in 6.2 mi South 8.1 mph - N/A   Mostly Cloudy
2:50 AM 59.0 °F 53.6 °F 82% 29.74 in 6.2 mi South 5.8 mph - N/A   Mostly Cloudy
3:20 AM 59.0 °F 53.6 °F 82% 29.74 in 6.2 mi South 6.9 mph - N/A   Light Drizzle
3:50 AM 59.0 °F 53.6 °F 82% 29.74 in 6.2 mi South 6.9 mph - N/A   Light Drizzle
4:20 AM 59.0 °F 55.4 °F 88% 29.74 in 6.2 mi South 6.9 mph - N/A   Light Drizzle
4:50 AM 59.0 °F 55.4 °F 88% 29.74 in 6.2 mi South 5.8 mph - N/A   Light Drizzle
5:20 AM 57.2 °F 55.4 °F 94% 29.74 in 6.2 mi South 5.8 mph - N/A   Drizzle
5:50 AM 57.2 °F 55.4 °F 94% 29.74 in 6.2 mi SSW 3.5 mph - N/A   Drizzle
6:00 AM 57.2 °F 55.4 °F 94% 29.74 in - North - - N/A   Mostly Cloudy
6:20 AM 57.2 °F 55.4 °F 94% 29.74 in - North - - N/A   Mostly Cloudy
6:50 AM 57.2 °F 55.4 °F 94% 29.74 in 4.3 mi South 4.6 mph - N/A   Light Drizzle
7:20 AM 57.2 °F 55.4 °F 94% 29.74 in 2.5 mi South 3.5 mph - N/A   Light Drizzle
7:50 AM 57.2 °F 55.4 °F 94% 29.74 in 2.5 mi SSW 3.5 mph - N/A   Light Drizzle
8:20 AM 59.0 °F 55.4 °F 88% 29.77 in 2.5 mi SSW 5.8 mph - N/A   Light Drizzle
8:50 AM 59.0 °F 55.4 °F 88% 29.77 in 3.1 mi SSW 5.8 mph - N/A   Mostly Cloudy
9:20 AM 59.0 °F 55.4 °F 88% 29.77 in 3.1 mi SSW 5.8 mph - N/A   Mostly Cloudy
9:50 AM 59.0 °F 55.4 °F 88% 29.77 in 3.7 mi South 6.9 mph - N/A   Mostly Cloudy
10:20 AM 59.0 °F 55.4 °F 88% 29.77 in 1.9 mi South 6.9 mph - N/A   Mostly Cloudy
10:50 AM 59.0 °F 57.2 °F 94% 29.77 in 1.9 mi South 6.9 mph - N/A   Mostly Cloudy
11:20 AM 59.0 °F 57.2 °F 94% 29.77 in 1.9 mi South 6.9 mph - N/A   Mostly Cloudy
11:50 AM 60.8 °F 57.2 °F 88% 29.77 in 1.9 mi South 5.8 mph - N/A   Mostly Cloudy
12:20 PM 60.8 °F 57.2 °F 88% 29.77 in 2.5 mi South 8.1 mph - N/A   Mostly Cloudy
12:50 PM 60.8 °F 55.4 °F 82% 29.77 in 2.5 mi SSW 9.2 mph - N/A   Mostly Cloudy
1:20 PM 57.2 °F 55.4 °F 94% 29.77 in 1.9 mi SSW 8.1 mph - N/A Rain Light Rain
1:50 PM 59.0 °F 57.2 °F 94% 29.74 in 1.9 mi SSW 9.2 mph - N/A Rain Light Rain
2:20 PM 59.0 °F 57.2 °F 94% 29.74 in 1.9 mi SSW 9.2 mph - N/A Rain Light Rain
2:50 PM 57.2 °F 57.2 °F 100% 29.74 in 0.9 mi South 9.2 mph - N/A Rain Rain
3:20 PM 57.2 °F 55.4 °F 94% 29.74 in 2.5 mi South 9.2 mph - N/A Rain Light Rain
3:50 PM 59.0 °F 55.4 °F 88% 29.74 in 2.5 mi South 9.2 mph - N/A Rain Light Rain
4:20 PM 57.2 °F 55.4 °F 94% 29.74 in 2.5 mi SSW 9.2 mph - N/A Rain Light Rain
4:50 PM 57.2 °F 55.4 °F 94% 29.74 in 2.5 mi SSW 6.9 mph - N/A Rain Light Rain
5:20 PM 57.2 °F 55.4 °F 94% 29.74 in 2.5 mi SSW 6.9 mph - N/A Rain Light Rain
5:50 PM 57.2 °F 55.4 °F 94% 29.77 in 2.5 mi SSW 5.8 mph - N/A   Overcast
6:20 PM 57.2 °F 55.4 °F 94% 29.77 in 2.5 mi SSW 6.9 mph - N/A   Overcast
6:50 PM 57.2 °F 55.4 °F 94% 29.77 in 2.5 mi SSW 8.1 mph - N/A   Overcast
7:20 PM 57.2 °F 55.4 °F 94% 29.80 in 2.5 mi SSW 5.8 mph - N/A   Overcast
7:50 PM 57.2 °F 55.4 °F 94% 29.80 in 2.5 mi South 5.8 mph - N/A   Overcast
8:20 PM 57.2 °F 55.4 °F 94% 29.80 in 2.5 mi South 6.9 mph - N/A Rain Light Rain
8:50 PM 57.2 °F 55.4 °F 94% 29.80 in 2.5 mi SSW 6.9 mph - N/A Rain Light Rain
9:20 PM 57.2 °F 55.4 °F 94% 29.80 in 2.5 mi South 6.9 mph - N/A Rain Light Rain
9:50 PM 57.2 °F 55.4 °F 94% 29.80 in 2.5 mi SSW 6.9 mph - N/A Rain Light Rain
10:20 PM 57.2 °F 55.4 °F 94% 29.80 in 2.5 mi South 5.8 mph - N/A   Mostly Cloudy
10:50 PM 57.2 °F 55.4 °F 94% 29.80 in 2.5 mi South 6.9 mph - N/A   Mostly Cloudy
11:20 PM 57.2 °F 55.4 °F 94% 29.80 in 2.5 mi South 5.8 mph - N/A   Mostly Cloudy
11:50 PM 57.2 °F 55.4 °F 94% 29.80 in 2.5 mi SSW 4.6 mph - N/A   Mostly Cloudy